Time,TemperatureF,DewpointF,PressureIn,WindDirection,WindDirectionDegrees,WindSpeedMPH,WindSpeedGustMPH,Humidity,HourlyPrecipIn,Conditions,Clouds,dailyrainin,SoftwareType,DateUTC
2013-03-29 00:03:00,57.0,44.0,30.12,North,-999,-999.0,-999.0,61,-99.99,,,-99.99,,2013-03-29 05:03:00,
2013-03-29 00:12:00,58.0,44.0,30.12,North,-999,-999.0,-999.0,60,-99.99,,,-99.99,,2013-03-29 05:12:00,
2013-03-29 00:23:00,58.0,44.0,30.12,North,-999,-999.0,-999.0,60,-99.99,,,-99.99,,2013-03-29 05:23:00,
2013-03-29 00:33:00,58.0,44.0,30.11,North,-999,-999.0,-999.0,60,-99.99,,,-99.99,,2013-03-29 05:33:00,
2013-03-29 00:43:00,58.0,44.0,30.11,North,-999,-999.0,-999.0,60,-99.99,,,-99.99,,2013-03-29 05:43:00,
2013-03-29 00:52:00,58.0,44.0,30.11,North,-999,-999.0,-999.0,60,-99.99,,,-99.99,,2013-03-29 05:52:00,
2013-03-29 01:02:00,59.0,44.0,30.11,North,-999,-999.0,-999.0,57,-99.99,,,-99.99,,2013-03-29 06:02:00,
2013-03-29 01:12:00,58.0,44.0,30.11,North,-999,-999.0,-999.0,59,-99.99,,,-99.99,,2013-03-29 06:12:00,
2013-03-29 01:23:00,58.0,44.0,30.11,North,-999,-999.0,-999.0,59,-99.99,,,-99.99,,2013-03-29 06:23:00,
2013-03-29 01:32:00,57.0,43.0,30.11,North,-999,-999.0,-999.0,60,-99.99,,,-99.99,,2013-03-29 06:32:00,
2013-03-29 01:42:00,56.0,43.0,30.11,North,-999,-999.0,-999.0,61,-99.99,,,-99.99,,2013-03-29 06:42:00,
2013-03-29 01:52:00,56.0,43.0,30.11,North,-999,-999.0,-999.0,61,-99.99,,,-99.99,,2013-03-29 06:52:00,
2013-03-29 02:03:00,56.0,43.0,30.11,North,-999,-999.0,-999.0,61,-99.99,,,-99.99,,2013-03-29 07:03:00,
2013-03-29 02:12:00,56.0,43.0,30.11,North,-999,-999.0,-999.0,61,-99.99,,,-99.99,,2013-03-29 07:12:00,
2013-03-29 02:22:00,56.0,43.0,30.11,North,-999,-999.0,-999.0,61,-99.99,,,-99.99,,2013-03-29 07:22:00,
2013-03-29 02:30:00,56.0,44.0,30.11,North,-999,-999.0,-999.0,64,-99.99,,,-99.99,,2013-03-29 07:30:00,
2013-03-29 02:32:00,56.0,43.0,30.11,North,-999,-999.0,-999.0,63,-99.99,,,-99.99,,2013-03-29 07:32:00,
2013-03-29 02:42:00,55.0,43.0,30.12,North,-999,-999.0,-999.0,64,-99.99,,,-99.99,,2013-03-29 07:42:00,
2013-03-29 02:52:00,55.0,43.0,30.12,North,-999,-999.0,-999.0,64,-99.99,,,-99.99,,2013-03-29 07:52:00,
2013-03-29 03:02:00,56.0,43.0,30.11,North,-999,-999.0,-999.0,63,-99.99,,,-99.99,,2013-03-29 08:02:00,
2013-03-29 03:12:00,56.0,44.0,30.11,North,-999,-999.0,-999.0,64,-99.99,,,-99.99,,2013-03-29 08:12:00,
2013-03-29 03:22:00,56.0,44.0,30.11,North,-999,-999.0,-999.0,64,-99.99,,,-99.99,,2013-03-29 08:22:00,
2013-03-29 03:42:00,54.0,43.0,30.12,North,-999,-999.0,-999.0,66,-99.99,,,-99.99,,2013-03-29 08:42:00,
2013-03-29 03:53:00,54.0,43.0,30.12,North,-999,-999.0,-999.0,66,-99.99,,,-99.99,,2013-03-29 08:53:00,
2013-03-29 04:02:00,55.0,43.0,30.13,North,-999,-999.0,-999.0,64,-99.99,,,-99.99,,2013-03-29 09:02:00,
2013-03-29 04:13:00,54.0,46.0,30.13,North,-999,-999.0,-999.0,74,-99.99,,,-99.99,,2013-03-29 09:13:00,
2013-03-29 04:22:00,54.0,46.0,30.13,North,-999,-999.0,-999.0,74,-99.99,,,-99.99,,2013-03-29 09:22:00,
2013-03-29 04:33:00,53.0,47.0,30.15,North,-999,-999.0,-999.0,80,-99.99,,,-99.99,,2013-03-29 09:33:00,
2013-03-29 04:42:00,53.0,48.0,30.15,North,-999,-999.0,-999.0,83,-99.99,,,-99.99,,2013-03-29 09:42:00,
2013-03-29 04:52:00,53.0,48.0,30.15,North,-999,-999.0,-999.0,83,-99.99,,,-99.99,,2013-03-29 09:52:00,
2013-03-29 05:03:00,52.0,48.0,30.13,North,-999,-999.0,-999.0,87,-99.99,,,-99.99,,2013-03-29 10:03:00,
2013-03-29 05:12:00,52.0,48.0,30.13,North,-999,-999.0,-999.0,88,-99.99,,,-99.99,,2013-03-29 10:12:00,
2013-03-29 05:22:00,52.0,48.0,30.13,North,-999,-999.0,-999.0,88,-99.99,,,-99.99,,2013-03-29 10:22:00,
2013-03-29 05:33:00,52.0,48.0,30.13,North,-999,-999.0,-999.0,89,-99.99,,,-99.99,,2013-03-29 10:33:00,
2013-03-29 05:42:00,51.0,48.0,30.12,North,-999,-999.0,-999.0,89,-99.99,,,-99.99,,2013-03-29 10:42:00,
2013-03-29 05:52:00,51.0,48.0,30.12,North,-999,-999.0,-999.0,89,-99.99,,,-99.99,,2013-03-29 10:52:00,
2013-03-29 06:03:00,51.0,49.0,30.12,North,-999,-999.0,-999.0,90,-99.99,,,-99.99,,2013-03-29 11:03:00,
2013-03-29 06:12:00,51.0,48.0,30.11,North,-999,-999.0,-999.0,90,-99.99,,,-99.99,,2013-03-29 11:12:00,
2013-03-29 06:23:00,51.0,48.0,30.11,North,-999,-999.0,-999.0,90,-99.99,,,-99.99,,2013-03-29 11:23:00,
2013-03-29 06:33:00,51.0,48.0,30.12,North,-999,-999.0,-999.0,90,-99.99,,,-99.99,,2013-03-29 11:33:00,
2013-03-29 06:42:00,51.0,48.0,30.12,North,-999,-999.0,-999.0,90,-99.99,,,-99.99,,2013-03-29 11:42:00,
2013-03-29 06:52:00,51.0,48.0,30.12,North,-999,-999.0,-999.0,90,-99.99,,,-99.99,,2013-03-29 11:52:00,
2013-03-29 07:03:00,51.0,49.0,30.13,North,-999,-999.0,-999.0,90,-99.99,,,-99.99,,2013-03-29 12:03:00,
2013-03-29 07:12:00,51.0,48.0,30.14,North,-999,-999.0,-999.0,90,-99.99,,,-99.99,,2013-03-29 12:12:00,
2013-03-29 07:22:00,51.0,48.0,30.14,North,-999,-999.0,-999.0,90,-99.99,,,-99.99,,2013-03-29 12:22:00,
2013-03-29 07:32:00,51.0,48.0,30.14,North,-999,-999.0,-999.0,90,-99.99,,,-99.99,,2013-03-29 12:32:00,
2013-03-29 07:42:00,51.0,49.0,30.15,North,-999,-999.0,-999.0,90,-99.99,,,-99.99,,2013-03-29 12:42:00,
2013-03-29 07:52:00,51.0,49.0,30.15,North,-999,-999.0,-999.0,90,-99.99,,,-99.99,,2013-03-29 12:52:00,
2013-03-29 08:03:00,51.0,49.0,30.15,North,-999,-999.0,-999.0,90,-99.99,,,-99.99,,2013-03-29 13:03:00,
2013-03-29 08:12:00,51.0,49.0,30.15,North,-999,-999.0,-999.0,90,-99.99,,,-99.99,,2013-03-29 13:12:00,
2013-03-29 08:22:00,51.0,49.0,30.15,North,-999,-999.0,-999.0,90,-99.99,,,-99.99,,2013-03-29 13:22:00,
2013-03-29 08:32:00,51.0,48.0,30.15,North,-999,-999.0,-999.0,90,-99.99,,,-99.99,,2013-03-29 13:32:00,
2013-03-29 08:42:00,51.0,49.0,30.15,North,-999,-999.0,-999.0,90,-99.99,,,-99.99,,2013-03-29 13:42:00,
2013-03-29 08:52:00,51.0,49.0,30.15,North,-999,-999.0,-999.0,90,-99.99,,,-99.99,,2013-03-29 13:52:00,
2013-03-29 09:03:00,51.0,49.0,30.15,North,-999,-999.0,-999.0,90,-99.99,,,-99.99,,2013-03-29 14:03:00,
2013-03-29 09:12:00,51.0,49.0,30.15,North,-999,-999.0,-999.0,90,-99.99,,,-99.99,,2013-03-29 14:12:00,
2013-03-29 09:22:00,51.0,49.0,30.15,North,-999,-999.0,-999.0,90,-99.99,,,-99.99,,2013-03-29 14:22:00,
2013-03-29 09:32:00,52.0,49.0,30.15,North,-999,-999.0,-999.0,90,-99.99,,,-99.99,,2013-03-29 14:32:00,
2013-03-29 09:42:00,52.0,49.0,30.15,North,-999,-999.0,-999.0,90,-99.99,,,-99.99,,2013-03-29 14:42:00,
2013-03-29 09:52:00,52.0,49.0,30.15,North,-999,-999.0,-999.0,90,-99.99,,,-99.99,,2013-03-29 14:52:00,
2013-03-29 10:02:00,53.0,50.0,30.16,North,-999,-999.0,-999.0,90,-99.99,,,-99.99,,2013-03-29 15:02:00,
2013-03-29 10:12:00,53.0,50.0,30.16,North,-999,-999.0,-999.0,90,-99.99,,,-99.99,,2013-03-29 15:12:00,
2013-03-29 10:22:00,53.0,50.0,30.16,North,-999,-999.0,-999.0,90,-99.99,,,-99.99,,2013-03-29 15:22:00,
2013-03-29 10:33:00,54.0,51.0,30.16,North,-999,-999.0,-999.0,90,-99.99,,,-99.99,,2013-03-29 15:33:00,
2013-03-29 10:43:00,54.0,50.0,30.16,North,-999,-999.0,-999.0,89,-99.99,,,-99.99,,2013-03-29 15:43:00,
2013-03-29 10:52:00,54.0,50.0,30.16,North,-999,-999.0,-999.0,89,-99.99,,,-99.99,,2013-03-29 15:52:00,
2013-03-29 11:03:00,54.0,51.0,30.16,North,-999,-999.0,-999.0,89,-99.99,,,-99.99,,2013-03-29 16:03:00,
2013-03-29 11:13:00,55.0,52.0,30.16,North,-999,-999.0,-999.0,88,-99.99,,,-99.99,,2013-03-29 16:13:00,
2013-03-29 11:23:00,55.0,52.0,30.16,North,-999,-999.0,-999.0,88,-99.99,,,-99.99,,2013-03-29 16:23:00,
2013-03-29 11:33:00,56.0,52.0,30.16,North,-999,-999.0,-999.0,85,-99.99,,,-99.99,,2013-03-29 16:33:00,
2013-03-29 11:42:00,57.0,53.0,30.16,North,-999,-999.0,-999.0,84,-99.99,,,-99.99,,2013-03-29 16:42:00,
2013-03-29 11:52:00,57.0,53.0,30.16,North,-999,-999.0,-999.0,84,-99.99,,,-99.99,,2013-03-29 16:52:00,
2013-03-29 12:03:00,58.0,52.0,30.16,North,-999,-999.0,-999.0,79,-99.99,,,-99.99,,2013-03-29 17:03:00,
2013-03-29 12:12:00,60.0,53.0,30.16,North,-999,-999.0,-999.0,80,-99.99,,,-99.99,,2013-03-29 17:12:00,
2013-03-29 12:22:00,60.0,53.0,30.16,North,-999,-999.0,-999.0,80,-99.99,,,-99.99,,2013-03-29 17:22:00,
2013-03-29 12:33:00,59.0,51.0,30.16,North,-999,-999.0,-999.0,75,-99.99,,,-99.99,,2013-03-29 17:33:00,
2013-03-29 12:43:00,60.0,51.0,30.15,North,-999,-999.0,-999.0,71,-99.99,,,-99.99,,2013-03-29 17:43:00,
2013-03-29 12:52:00,60.0,51.0,30.15,North,-999,-999.0,-999.0,71,-99.99,,,-99.99,,2013-03-29 17:52:00,
2013-03-29 13:02:00,60.0,51.0,30.15,North,-999,-999.0,-999.0,72,-99.99,,,-99.99,,2013-03-29 18:02:00,
2013-03-29 13:12:00,61.0,52.0,30.15,North,-999,-999.0,-999.0,71,-99.99,,,-99.99,,2013-03-29 18:12:00,
2013-03-29 13:23:00,61.0,52.0,30.15,North,-999,-999.0,-999.0,71,-99.99,,,-99.99,,2013-03-29 18:23:00,
2013-03-29 13:32:00,62.0,50.0,30.14,North,-999,-999.0,-999.0,66,-99.99,,,-99.99,,2013-03-29 18:32:00,
2013-03-29 13:42:00,60.0,50.0,30.14,North,-999,-999.0,-999.0,69,-99.99,,,-99.99,,2013-03-29 18:42:00,
2013-03-29 13:52:00,60.0,50.0,30.14,North,-999,-999.0,-999.0,69,-99.99,,,-99.99,,2013-03-29 18:52:00,
2013-03-29 14:02:00,61.0,50.0,30.14,North,-999,-999.0,-999.0,67,-99.99,,,-99.99,,2013-03-29 19:02:00,
2013-03-29 14:12:00,63.0,52.0,30.14,North,-999,-999.0,-999.0,68,-99.99,,,-99.99,,2013-03-29 19:12:00,
2013-03-29 14:23:00,63.0,52.0,30.14,North,-999,-999.0,-999.0,68,-99.99,,,-99.99,,2013-03-29 19:23:00,
2013-03-29 14:32:00,61.0,48.0,30.13,North,-999,-999.0,-999.0,62,-99.99,,,-99.99,,2013-03-29 19:32:00,
2013-03-29 14:42:00,62.0,49.0,30.13,North,-999,-999.0,-999.0,61,-99.99,,,-99.99,,2013-03-29 19:42:00,
2013-03-29 14:52:00,62.0,49.0,30.13,North,-999,-999.0,-999.0,61,-99.99,,,-99.99,,2013-03-29 19:52:00,
2013-03-29 15:00:00,65.0,47.0,30.11,North,-999,-999.0,-999.0,51,-99.99,,,-99.99,,2013-03-29 20:00:00,
2013-03-29 15:02:00,62.0,48.0,30.13,North,-999,-999.0,-999.0,59,-99.99,,,-99.99,,2013-03-29 20:02:00,
2013-03-29 15:12:00,63.0,50.0,30.12,North,-999,-999.0,-999.0,63,-99.99,,,-99.99,,2013-03-29 20:12:00,
2013-03-29 15:22:00,63.0,50.0,30.12,North,-999,-999.0,-999.0,63,-99.99,,,-99.99,,2013-03-29 20:22:00,
2013-03-29 15:33:00,65.0,49.0,30.11,North,-999,-999.0,-999.0,56,-99.99,,,-99.99,,2013-03-29 20:33:00,
2013-03-29 15:42:00,65.0,47.0,30.11,North,-999,-999.0,-999.0,51,-99.99,,,-99.99,,2013-03-29 20:42:00,
2013-03-29 15:52:00,65.0,47.0,30.11,North,-999,-999.0,-999.0,51,-99.99,,,-99.99,,2013-03-29 20:52:00,
2013-03-29 16:12:00,63.0,47.0,30.10,North,-999,-999.0,-999.0,55,-99.99,,,-99.99,,2013-03-29 21:12:00,
2013-03-29 16:22:00,63.0,47.0,30.10,North,-999,-999.0,-999.0,55,-99.99,,,-99.99,,2013-03-29 21:22:00,
2013-03-29 16:30:00,65.0,48.0,30.09,North,-999,-999.0,-999.0,53,-99.99,,,-99.99,,2013-03-29 21:30:00,
2013-03-29 16:33:00,65.0,48.0,30.09,North,-999,-999.0,-999.0,53,-99.99,,,-99.99,,2013-03-29 21:33:00,
2013-03-29 16:42:00,65.0,47.0,30.09,North,-999,-999.0,-999.0,52,-99.99,,,-99.99,,2013-03-29 21:42:00,
2013-03-29 16:53:00,65.0,47.0,30.09,North,-999,-999.0,-999.0,52,-99.99,,,-99.99,,2013-03-29 21:53:00,
2013-03-29 17:03:00,66.0,47.0,30.09,North,-999,-999.0,-999.0,50,-99.99,,,-99.99,,2013-03-29 22:03:00,
2013-03-29 17:12:00,65.0,48.0,30.09,North,-999,-999.0,-999.0,53,-99.99,,,-99.99,,2013-03-29 22:12:00,
2013-03-29 17:22:00,65.0,48.0,30.09,North,-999,-999.0,-999.0,53,-99.99,,,-99.99,,2013-03-29 22:22:00,
2013-03-29 17:43:00,67.0,48.0,30.09,North,-999,-999.0,-999.0,51,-99.99,,,-99.99,,2013-03-29 22:43:00,
2013-03-29 17:54:00,67.0,48.0,30.09,North,-999,-999.0,-999.0,51,-99.99,,,-99.99,,2013-03-29 22:54:00,
2013-03-29 18:00:00,63.0,49.0,30.09,North,-999,-999.0,-999.0,60,-99.99,,,-99.99,,2013-03-29 23:00:00,
2013-03-29 18:03:00,65.0,45.0,30.09,North,-999,-999.0,-999.0,49,-99.99,,,-99.99,,2013-03-29 23:03:00,
2013-03-29 18:12:00,65.0,48.0,30.09,North,-999,-999.0,-999.0,53,-99.99,,,-99.99,,2013-03-29 23:12:00,
2013-03-29 18:22:00,65.0,48.0,30.09,North,-999,-999.0,-999.0,53,-99.99,,,-99.99,,2013-03-29 23:22:00,
2013-03-29 18:32:00,64.0,50.0,30.09,North,-999,-999.0,-999.0,60,-99.99,,,-99.99,,2013-03-29 23:32:00,
2013-03-29 18:42:00,63.0,49.0,30.09,North,-999,-999.0,-999.0,60,-99.99,,,-99.99,,2013-03-29 23:42:00,
2013-03-29 18:52:00,63.0,49.0,30.09,North,-999,-999.0,-999.0,60,-99.99,,,-99.99,,2013-03-29 23:52:00,
2013-03-29 19:12:00,63.0,48.0,30.10,North,-999,-999.0,-999.0,58,-99.99,,,-99.99,,2013-03-30 00:12:00,
2013-03-29 19:22:00,63.0,48.0,30.10,North,-999,-999.0,-999.0,58,-99.99,,,-99.99,,2013-03-30 00:22:00,
2013-03-29 19:32:00,63.0,49.0,30.10,North,-999,-999.0,-999.0,59,-99.99,,,-99.99,,2013-03-30 00:32:00,
2013-03-29 19:42:00,63.0,48.0,30.10,North,-999,-999.0,-999.0,58,-99.99,,,-99.99,,2013-03-30 00:42:00,
2013-03-29 19:52:00,63.0,48.0,30.10,North,-999,-999.0,-999.0,58,-99.99,,,-99.99,,2013-03-30 00:52:00,
2013-03-29 20:00:00,61.0,48.0,30.09,North,-999,-999.0,-999.0,62,-99.99,,,-99.99,,2013-03-30 01:00:00,
2013-03-29 20:02:00,62.0,48.0,30.10,North,-999,-999.0,-999.0,60,-99.99,,,-99.99,,2013-03-30 01:02:00,
2013-03-29 20:12:00,62.0,48.0,30.09,North,-999,-999.0,-999.0,60,-99.99,,,-99.99,,2013-03-30 01:12:00,
2013-03-29 20:22:00,62.0,48.0,30.09,North,-999,-999.0,-999.0,60,-99.99,,,-99.99,,2013-03-30 01:22:00,
2013-03-29 20:33:00,61.0,48.0,30.09,North,-999,-999.0,-999.0,62,-99.99,,,-99.99,,2013-03-30 01:33:00,
2013-03-29 20:43:00,61.0,48.0,30.09,North,-999,-999.0,-999.0,62,-99.99,,,-99.99,,2013-03-30 01:43:00,
2013-03-29 20:52:00,61.0,48.0,30.09,North,-999,-999.0,-999.0,62,-99.99,,,-99.99,,2013-03-30 01:52:00,
2013-03-29 21:12:00,57.0,47.0,30.09,North,-999,-999.0,-999.0,70,-99.99,,,-99.99,,2013-03-30 02:12:00,
2013-03-29 21:22:00,57.0,47.0,30.09,North,-999,-999.0,-999.0,70,-99.99,,,-99.99,,2013-03-30 02:22:00,
2013-03-29 21:32:00,58.0,47.0,30.10,North,-999,-999.0,-999.0,67,-99.99,,,-99.99,,2013-03-30 02:32:00,
2013-03-29 21:42:00,58.0,47.0,30.10,North,-999,-999.0,-999.0,67,-99.99,,,-99.99,,2013-03-30 02:42:00,
2013-03-29 21:52:00,58.0,47.0,30.10,North,-999,-999.0,-999.0,67,-99.99,,,-99.99,,2013-03-30 02:52:00,
2013-03-29 22:02:00,57.0,47.0,30.11,North,-999,-999.0,-999.0,68,-99.99,,,-99.99,,2013-03-30 03:02:00,
2013-03-29 22:12:00,57.0,47.0,30.11,North,-999,-999.0,-999.0,69,-99.99,,,-99.99,,2013-03-30 03:12:00,
2013-03-29 22:22:00,57.0,47.0,30.11,North,-999,-999.0,-999.0,69,-99.99,,,-99.99,,2013-03-30 03:22:00,
2013-03-29 22:33:00,56.0,47.0,30.11,North,-999,-999.0,-999.0,70,-99.99,,,-99.99,,2013-03-30 03:33:00,
2013-03-29 22:43:00,56.0,46.0,30.11,North,-999,-999.0,-999.0,70,-99.99,,,-99.99,,2013-03-30 03:43:00,
2013-03-29 22:53:00,56.0,46.0,30.11,North,-999,-999.0,-999.0,70,-99.99,,,-99.99,,2013-03-30 03:53:00,
2013-03-29 23:02:00,56.0,46.0,30.12,North,-999,-999.0,-999.0,71,-99.99,,,-99.99,,2013-03-30 04:02:00,
2013-03-29 23:12:00,55.0,46.0,30.11,North,-999,-999.0,-999.0,71,-99.99,,,-99.99,,2013-03-30 04:12:00,
2013-03-29 23:23:00,55.0,46.0,30.11,North,-999,-999.0,-999.0,71,-99.99,,,-99.99,,2013-03-30 04:23:00,
2013-03-29 23:32:00,55.0,46.0,30.10,North,-999,-999.0,-999.0,72,-99.99,,,-99.99,,2013-03-30 04:32:00,
2013-03-29 23:43:00,54.0,46.0,30.10,North,-999,-999.0,-999.0,73,-99.99,,,-99.99,,2013-03-30 04:43:00,
2013-03-29 23:52:00,54.0,46.0,30.10,North,-999,-999.0,-999.0,73,-99.99,,,-99.99,,2013-03-30 04:52:00,